THY9GV LTFM-EGCC

Flight info

Callsign THY9GV
Flight time 3h 35m
Altitude 32000
Route TUDBU1E DCT ETUBA DCT NAVOD DCT INVED/N0452F340 DCT DITIS DCT OKG DCT VELIS DCT SWALM DCT TORNU DCT BATAK DCT GALSO Q63 ERING L179 LAM UN57 WELIN T420 ELVOS1M
Aircraft A321/M-SDE2E3FGHIRWY/LB1

Departure

Time 2026-05-07 15:35
Airport İstanbul Airport (LTFM)

Arrival

Time 2026-05-07 19:10
Airport Manchester Airport (EGCC)
Time Latitude Longitude Altitude Speed Heading
2026-05-07 15:09 41.26494 28.74997 334 ft 0 kts 287°
2026-05-07 15:25 41.26492 28.75006 334 ft 4 kts 285°
2026-05-07 15:25 41.26487 28.75041 332 ft 4 kts 271°
2026-05-07 15:26 41.26490 28.75075 330 ft 4 kts 240°
2026-05-07 15:26 41.26504 28.75093 329 ft 0 kts 197°
2026-05-07 15:30 41.26502 28.75093 329 ft 1 kts 197°
2026-05-07 15:30 41.26480 28.75083 329 ft 5 kts 197°
2026-05-07 15:30 41.26445 28.75069 331 ft 5 kts 197°
2026-05-07 15:30 41.26407 28.75054 334 ft 6 kts 197°
2026-05-07 15:31 41.26366 28.75037 333 ft 6 kts 197°
2026-05-07 15:31 41.26322 28.75019 331 ft 7 kts 197°
2026-05-07 15:31 41.26276 28.75000 331 ft 7 kts 197°
2026-05-07 15:31 41.26246 28.75027 333 ft 6 kts 98°
2026-05-07 15:32 41.26242 28.75083 334 ft 6 kts 94°
2026-05-07 15:32 41.26242 28.75144 334 ft 7 kts 86°
2026-05-07 15:32 41.26245 28.75209 334 ft 7 kts 88°
2026-05-07 15:32 41.26246 28.75277 334 ft 8 kts 88°
2026-05-07 15:33 41.26247 28.75350 334 ft 8 kts 89°
2026-05-07 15:33 41.26248 28.75426 334 ft 8 kts 89°
2026-05-07 15:33 41.26248 28.75506 334 ft 9 kts 89°
2026-05-07 15:33 41.26249 28.75590 334 ft 9 kts 89°
2026-05-07 15:34 41.26274 28.75658 334 ft 9 kts 24°
2026-05-07 15:34 41.26344 28.75664 331 ft 13 kts 359°
2026-05-07 15:34 41.26648 28.75662 331 ft 79 kts 359°
2026-05-07 15:34 41.27406 28.75647 334 ft 137 kts 359°
2026-05-07 15:35 41.28519 28.75623 428 ft 174 kts
2026-05-07 15:35 41.29715 28.75622 1116 ft 172 kts
2026-05-07 15:35 41.30834 28.76205 1749 ft 174 kts 32°
2026-05-07 15:35 41.31857 28.77104 2103 ft 184 kts 33°
2026-05-07 15:36 41.32978 28.78101 2246 ft 203 kts 32°
2026-05-07 15:36 41.34223 28.79171 2374 ft 223 kts 31°
2026-05-07 15:36 41.35597 28.80309 2490 ft 244 kts 30°
2026-05-07 15:36 41.37186 28.81351 2693 ft 262 kts 11°
2026-05-07 15:37 41.38972 28.81406 3196 ft 262 kts 343°
2026-05-07 15:37 41.40578 28.80358 3836 ft 258 kts 316°
2026-05-07 15:37 41.41733 28.78545 4471 ft 258 kts 305°
2026-05-07 15:37 41.42802 28.76610 5099 ft 261 kts 305°
2026-05-07 15:38 41.43874 28.74650 5744 ft 263 kts 305°
2026-05-07 15:38 41.44955 28.72675 6382 ft 265 kts 305°
2026-05-07 15:38 41.46048 28.70682 6982 ft 267 kts 305°
2026-05-07 15:38 41.47152 28.68674 7585 ft 270 kts 306°
2026-05-07 15:39 41.48265 28.66652 8199 ft 272 kts 306°
2026-05-07 15:39 41.49390 28.64614 8811 ft 274 kts 306°
2026-05-07 15:39 41.50511 28.62587 9404 ft 277 kts 306°
2026-05-07 15:39 41.51656 28.60512 10013 ft 279 kts 306°
2026-05-07 15:40 41.52830 28.58387 10275 ft 294 kts 306°
2026-05-07 15:40 41.54079 28.56119 10407 ft 312 kts 306°
2026-05-07 15:40 41.55400 28.53715 10521 ft 330 kts 306°
2026-05-07 15:40 41.56793 28.51176 10649 ft 347 kts 306°
2026-05-07 15:41 41.58245 28.48528 10960 ft 357 kts 306°
2026-05-07 15:41 41.59718 28.45841 11452 ft 361 kts 306°
2026-05-07 15:41 41.61207 28.43123 11964 ft 364 kts 306°
2026-05-07 15:41 41.62688 28.40417 12485 ft 367 kts 306°
2026-05-07 15:42 41.64202 28.37649 13001 ft 371 kts 306°
2026-05-07 15:42 41.65731 28.34853 13516 ft 374 kts 306°
2026-05-07 15:42 41.67272 28.32034 14009 ft 378 kts 306°
2026-05-07 15:42 41.68828 28.29184 14466 ft 381 kts 306°
2026-05-07 15:43 41.70394 28.26311 14954 ft 383 kts 306°
2026-05-07 15:43 41.71967 28.23423 15442 ft 385 kts 306°
2026-05-07 15:43 41.73549 28.20513 15952 ft 388 kts 306°
2026-05-07 15:43 41.75120 28.17623 16441 ft 390 kts 306°
2026-05-07 15:44 41.76717 28.14682 16935 ft 392 kts 306°
2026-05-07 15:44 41.78327 28.11718 17421 ft 394 kts 306°
2026-05-07 15:44 41.79944 28.08739 17914 ft 397 kts 306°
2026-05-07 15:44 41.81572 28.05736 18387 ft 400 kts 306°
2026-05-07 15:45 41.83210 28.02708 18777 ft 402 kts 306°
2026-05-07 15:45 41.84855 27.99662 19192 ft 404 kts 306°
2026-05-07 15:45 41.86504 27.96608 19603 ft 405 kts 306°
2026-05-07 15:45 41.88155 27.93538 20002 ft 406 kts 306°
2026-05-07 15:46 41.91449 27.87407 20793 ft 409 kts 306°
2026-05-07 15:46 41.93117 27.84303 21189 ft 410 kts 306°
2026-05-07 15:46 41.94793 27.81186 21563 ft 412 kts 306°
2026-05-07 15:47 41.96490 27.78077 21928 ft 414 kts 309°
2026-05-07 15:47 41.98446 27.75239 22280 ft 415 kts 314°
2026-05-07 15:47 42.00476 27.72471 22629 ft 417 kts 315°
2026-05-07 15:47 42.02516 27.69695 22995 ft 418 kts 315°
2026-05-07 15:48 42.04560 27.66905 23344 ft 420 kts 315°
2026-05-07 15:48 42.06611 27.64096 23676 ft 421 kts 314°
2026-05-07 15:48 42.08642 27.61316 23964 ft 423 kts 314°
2026-05-07 15:48 42.10709 27.58480 24187 ft 426 kts 314°
2026-05-07 15:49 42.12792 27.55616 24448 ft 428 kts 314°
2026-05-07 15:49 42.14879 27.52747 24757 ft 429 kts 314°
2026-05-07 15:49 42.16970 27.49877 25076 ft 429 kts 314°
2026-05-07 15:49 42.19062 27.46994 25366 ft 430 kts 314°
2026-05-07 15:50 42.21155 27.44098 25645 ft 432 kts 314°
2026-05-07 15:50 42.23249 27.41196 25911 ft 433 kts 314°
2026-05-07 15:50 42.25326 27.38317 26154 ft 435 kts 314°
2026-05-07 15:50 42.27442 27.35391 26385 ft 437 kts 314°
2026-05-07 15:51 42.29568 27.32452 26631 ft 438 kts 314°
2026-05-07 15:51 42.31702 27.29498 26881 ft 440 kts 314°
2026-05-07 15:51 42.33841 27.26533 27150 ft 441 kts 314°
2026-05-07 15:51 42.35983 27.23555 27423 ft 442 kts 314°
2026-05-07 15:52 42.38124 27.20573 27796 ft 441 kts 314°
2026-05-07 15:52 42.40255 27.17601 28182 ft 439 kts 314°
2026-05-07 15:52 42.42354 27.14672 28478 ft 440 kts 314°
2026-05-07 15:52 42.44488 27.11695 28755 ft 441 kts 314°
2026-05-07 15:53 42.46613 27.08728 29190 ft 438 kts 314°
2026-05-07 15:53 42.48727 27.05776 29607 ft 435 kts 314°
2026-05-07 15:53 42.50828 27.02834 29993 ft 434 kts 314°
2026-05-07 15:53 42.52920 26.99903 30325 ft 432 kts 313°
2026-05-07 15:54 42.55004 26.96979 30641 ft 431 kts 313°
2026-05-07 15:54 42.57082 26.94062 30952 ft 429 kts 313°
2026-05-07 15:54 42.59125 26.91188 31224 ft 429 kts 313°
2026-05-07 15:54 42.61193 26.88276 31509 ft 428 kts 312°
2026-05-07 15:55 42.63255 26.85368 31816 ft 427 kts 312°
2026-05-07 15:55 42.65309 26.82469 32093 ft 425 kts 312°
2026-05-07 15:55 42.67359 26.79576 32380 ft 424 kts 312°
2026-05-07 15:55 42.69399 26.76693 32655 ft 423 kts 312°
2026-05-07 15:56 42.71436 26.73811 32935 ft 422 kts 312°
2026-05-07 15:56 42.73469 26.70934 33221 ft 421 kts 311°
2026-05-07 15:56 42.75470 26.68101 33474 ft 420 kts 311°
2026-05-07 15:56 42.77516 26.65204 33757 ft 419 kts 311°
2026-05-07 15:57 42.79504 26.62380 34000 ft 418 kts 311°
2026-05-07 15:57 42.83096 26.56192 34059 ft 417 kts 302°
2026-05-07 15:58 42.86255 26.49551 34059 ft 418 kts 301°
2026-05-07 15:58 42.89418 26.42906 34054 ft 419 kts 302°
2026-05-07 15:59 42.92570 26.36283 34056 ft 419 kts 302°
2026-05-07 15:59 42.95735 26.29611 34054 ft 419 kts 302°
2026-05-07 16:00 42.98899 26.22925 34050 ft 419 kts 301°
2026-05-07 16:00 43.02038 26.16274 34043 ft 420 kts 301°
2026-05-07 16:01 43.05202 26.09543 34030 ft 422 kts 301°
2026-05-07 16:01 43.08378 26.02790 34026 ft 423 kts 301°
2026-05-07 16:02 43.11557 25.96018 34029 ft 423 kts 301°
2026-05-07 16:02 43.14731 25.89226 34042 ft 424 kts 300°
2026-05-07 16:03 43.17885 25.82471 34040 ft 424 kts 300°
2026-05-07 16:03 43.21057 25.75654 34042 ft 424 kts 300°
2026-05-07 16:04 43.24227 25.68825 34044 ft 425 kts 300°
2026-05-07 16:04 43.27391 25.61981 34046 ft 425 kts 300°
2026-05-07 16:05 43.30531 25.55182 34045 ft 425 kts 300°
2026-05-07 16:05 43.33697 25.48330 34045 ft 424 kts 300°
2026-05-07 16:06 43.36851 25.41478 34046 ft 424 kts 300°
2026-05-07 16:06 43.39999 25.34614 34043 ft 425 kts 300°
2026-05-07 16:07 43.43135 25.27773 34026 ft 427 kts 300°
2026-05-07 16:07 43.46306 25.20858 34025 ft 428 kts 300°
2026-05-07 16:08 43.49467 25.13918 34036 ft 428 kts 299°
2026-05-07 16:08 43.52627 25.06946 34040 ft 429 kts 299°
2026-05-07 16:09 43.55781 25.00001 34047 ft 431 kts 300°
2026-05-07 16:09 43.58963 24.92988 34049 ft 432 kts 299°
2026-05-07 16:10 43.62132 24.85964 34055 ft 432 kts 299°
2026-05-07 16:10 43.65308 24.78914 34054 ft 432 kts 299°
2026-05-07 16:11 43.68456 24.71904 34057 ft 433 kts 299°
2026-05-07 16:11 43.71632 24.64824 34053 ft 434 kts 299°
2026-05-07 16:12 43.74812 24.57730 34049 ft 434 kts 300°
2026-05-07 16:12 43.78571 24.51149 34062 ft 437 kts 308°
2026-05-07 16:13 43.82498 24.44808 34039 ft 438 kts 308°
2026-05-07 16:13 43.86465 24.38395 34049 ft 439 kts 308°
2026-05-07 16:14 43.90433 24.31959 34052 ft 439 kts 307°
2026-05-07 16:14 43.94403 24.25501 34065 ft 440 kts 308°
2026-05-07 16:15 43.98345 24.19071 34051 ft 441 kts 308°
2026-05-07 16:15 44.02323 24.12578 34066 ft 441 kts 308°
2026-05-07 16:16 44.06303 24.06076 34072 ft 442 kts 308°
2026-05-07 16:16 44.10273 23.99558 34066 ft 442 kts 307°
2026-05-07 16:17 44.14215 23.93061 34055 ft 443 kts 307°
2026-05-07 16:17 44.18182 23.86519 34053 ft 443 kts 307°
2026-05-07 16:18 44.22163 23.79948 34060 ft 444 kts 307°
2026-05-07 16:18 44.26148 23.73349 34077 ft 445 kts 306°
2026-05-07 16:19 44.30102 23.66788 34074 ft 445 kts 306°
2026-05-07 16:19 44.34085 23.60173 34072 ft 445 kts 306°
2026-05-07 16:20 44.38058 23.53539 34071 ft 445 kts 306°
2026-05-07 16:20 44.42025 23.46894 34087 ft 445 kts 306°
2026-05-07 16:21 44.45995 23.40246 34082 ft 445 kts 306°
2026-05-07 16:21 44.49943 23.33634 34079 ft 445 kts 306°
2026-05-07 16:22 44.53909 23.26965 34079 ft 446 kts 306°
2026-05-07 16:22 44.57870 23.20274 34086 ft 446 kts 305°
2026-05-07 16:23 44.61842 23.13561 34076 ft 447 kts 305°
2026-05-07 16:23 44.65789 23.06868 34068 ft 448 kts 305°
2026-05-07 16:24 44.69765 23.00118 34070 ft 449 kts 305°
2026-05-07 16:24 44.73745 22.93351 34072 ft 449 kts 305°
2026-05-07 16:25 44.77710 22.86581 34080 ft 449 kts 305°
2026-05-07 16:25 44.81646 22.79823 34081 ft 449 kts 305°
2026-05-07 16:26 44.85610 22.73021 34084 ft 449 kts 305°
2026-05-07 16:26 44.89572 22.66212 34090 ft 449 kts 304°
2026-05-07 16:27 44.93524 22.59395 34090 ft 449 kts 304°
2026-05-07 16:27 44.97464 22.52589 34090 ft 448 kts 304°
2026-05-07 16:28 45.01382 22.45815 34087 ft 448 kts 304°
2026-05-07 16:28 45.05316 22.38983 34084 ft 448 kts 304°
2026-05-07 16:29 45.09242 22.32137 34088 ft 448 kts 304°
2026-05-07 16:29 45.13163 22.25293 34082 ft 447 kts 304°
2026-05-07 16:30 45.17038 22.18527 34075 ft 447 kts 304°
2026-05-07 16:30 45.20957 22.11674 34077 ft 447 kts 304°
2026-05-07 16:31 45.24854 22.04818 34077 ft 447 kts 304°
2026-05-07 16:31 45.28722 21.97996 34061 ft 447 kts 304°
2026-05-07 16:32 45.32615 21.91123 34058 ft 447 kts 304°
2026-05-07 16:32 45.36511 21.84237 34046 ft 447 kts 304°
2026-05-07 16:33 45.40407 21.77328 34046 ft 448 kts 303°
2026-05-07 16:33 45.44305 21.70405 34024 ft 449 kts 303°
2026-05-07 16:34 45.48178 21.63497 34011 ft 449 kts 303°
2026-05-07 16:34 45.52071 21.56519 34016 ft 450 kts 303°
2026-05-07 16:35 45.55969 21.49538 34037 ft 450 kts 303°
2026-05-07 16:35 45.59850 21.42582 34027 ft 451 kts 303°
2026-05-07 16:36 45.63744 21.35563 34024 ft 451 kts 303°
2026-05-07 16:36 45.67638 21.28526 34022 ft 451 kts 303°
2026-05-07 16:37 45.71531 21.21475 34040 ft 451 kts 303°
2026-05-07 16:37 45.75417 21.14430 34032 ft 450 kts 303°
2026-05-07 16:38 45.79261 21.07433 34029 ft 450 kts 303°
2026-05-07 16:38 45.83130 21.00387 34026 ft 449 kts 303°
2026-05-07 16:39 45.86988 20.93340 34046 ft 449 kts 303°
2026-05-07 16:39 45.90814 20.86339 34030 ft 448 kts 303°
2026-05-07 16:40 45.94651 20.79293 34036 ft 448 kts 303°
2026-05-07 16:40 45.98477 20.72237 34028 ft 447 kts 303°
2026-05-07 16:41 46.02300 20.65181 34033 ft 447 kts 303°
2026-05-07 16:41 46.06085 20.58172 34030 ft 445 kts 303°
2026-05-07 16:42 46.09881 20.51129 34024 ft 445 kts 303°
2026-05-07 16:42 46.13673 20.44064 34024 ft 446 kts 303°
2026-05-07 16:43 46.17486 20.37005 34030 ft 446 kts 304°
2026-05-07 16:43 46.21398 20.30121 34016 ft 445 kts 304°
2026-05-07 16:44 46.25338 20.23297 34008 ft 443 kts 304°
2026-05-07 16:44 46.29256 20.16420 34012 ft 443 kts 304°
2026-05-07 16:45 46.33157 20.09504 34031 ft 444 kts 304°
2026-05-07 16:45 46.37015 20.02619 34031 ft 444 kts 304°
2026-05-07 16:46 46.40907 19.95675 34036 ft 444 kts 304°
2026-05-07 16:46 46.44803 19.88738 34033 ft 444 kts 304°
2026-05-07 16:47 46.48693 19.81787 34040 ft 444 kts 304°
2026-05-07 16:47 46.52549 19.74869 34043 ft 443 kts 303°
2026-05-07 16:48 46.56416 19.67910 34036 ft 442 kts 303°
2026-05-07 16:48 46.60276 19.60968 34035 ft 441 kts 303°
2026-05-07 16:49 46.64119 19.54012 34037 ft 441 kts 303°
2026-05-07 16:49 46.67933 19.47090 34032 ft 441 kts 303°
2026-05-07 16:50 46.71772 19.40121 34059 ft 441 kts 303°
2026-05-07 16:50 46.75610 19.33136 34044 ft 442 kts 303°
2026-05-07 16:51 46.79449 19.26129 34035 ft 442 kts 302°
2026-05-07 16:51 46.83254 19.19155 34026 ft 442 kts 302°
2026-05-07 16:52 46.87081 19.12114 34023 ft 443 kts 302°
2026-05-07 16:52 46.90917 19.05068 34044 ft 443 kts 302°
2026-05-07 16:53 46.94747 18.98017 34032 ft 442 kts 302°
2026-05-07 16:53 46.98533 18.91002 34027 ft 442 kts 301°
2026-05-07 16:54 47.02346 18.83925 34021 ft 443 kts 301°
2026-05-07 16:54 47.06160 18.76846 34021 ft 441 kts 301°
2026-05-07 16:55 47.09941 18.69814 34023 ft 438 kts 301°
2026-05-07 16:55 47.13678 18.62815 34017 ft 439 kts 301°
2026-05-07 16:56 47.17443 18.55746 34013 ft 439 kts 301°
2026-05-07 16:56 47.23091 18.45127 34018 ft 440 kts 300°
2026-05-07 16:57 47.26841 18.38073 34009 ft 441 kts 300°
2026-05-07 16:57 47.30611 18.30959 34003 ft 441 kts 300°
2026-05-07 16:58 47.34377 18.23824 34002 ft 441 kts 300°
2026-05-07 16:58 47.38129 18.16678 33997 ft 441 kts 300°
2026-05-07 16:59 47.41907 18.09485 33992 ft 445 kts 300°
2026-05-07 16:59 47.45676 18.02287 33982 ft 447 kts 300°
2026-05-07 17:00 47.49474 17.95008 33981 ft 447 kts 300°
2026-05-07 17:00 47.53266 17.87716 33984 ft 448 kts 300°
2026-05-07 17:01 47.57058 17.80410 34001 ft 448 kts 301°
2026-05-07 17:01 47.60823 17.73147 33983 ft 447 kts 301°
2026-05-07 17:02 47.64608 17.65836 33986 ft 447 kts 301°
2026-05-07 17:02 47.68383 17.58509 33981 ft 447 kts 301°
2026-05-07 17:03 47.72152 17.51166 33994 ft 447 kts 300°
2026-05-07 17:03 47.75894 17.43860 33975 ft 446 kts 300°
2026-05-07 17:04 47.79657 17.36502 33967 ft 447 kts 300°
2026-05-07 17:04 47.83421 17.29119 33968 ft 448 kts 300°
2026-05-07 17:05 47.87186 17.21716 33968 ft 449 kts 300°
2026-05-07 17:05 47.90926 17.14333 34020 ft 449 kts 300°
2026-05-07 17:06 47.94682 17.06896 34007 ft 449 kts 300°
2026-05-07 17:06 47.98442 16.99445 33996 ft 449 kts 300°
2026-05-07 17:07 48.01562 16.93247 33991 ft 449 kts 300°
2026-05-07 17:07 48.05918 16.84575 34013 ft 449 kts 300°
2026-05-07 17:08 48.09659 16.77094 34014 ft 449 kts 300°
2026-05-07 17:08 48.12757 16.70855 34016 ft 449 kts 300°
2026-05-07 17:09 48.16491 16.63349 34017 ft 450 kts 300°
2026-05-07 17:09 48.20834 16.54609 34019 ft 450 kts 300°
2026-05-07 17:10 48.23953 16.48302 34030 ft 449 kts 300°
2026-05-07 17:10 48.27642 16.40822 34031 ft 448 kts 301°
2026-05-07 17:11 48.31338 16.33322 34016 ft 446 kts 301°
2026-05-07 17:11 48.35015 16.25831 34006 ft 445 kts 300°
2026-05-07 17:12 48.38675 16.18336 34003 ft 444 kts 301°
2026-05-07 17:12 48.42311 16.10891 33981 ft 445 kts 301°
2026-05-07 17:13 48.45966 16.03386 33969 ft 444 kts 301°
2026-05-07 17:13 48.49613 15.95865 33968 ft 445 kts 301°
2026-05-07 17:14 48.53261 15.88335 33964 ft 445 kts 301°
2026-05-07 17:14 48.56887 15.80830 33969 ft 445 kts 301°
2026-05-07 17:15 48.60529 15.73251 33984 ft 446 kts 301°
2026-05-07 17:15 48.64182 15.65642 33972 ft 447 kts 301°
2026-05-07 17:16 48.67832 15.58019 33978 ft 448 kts 301°
2026-05-07 17:16 48.71452 15.50424 33980 ft 448 kts 301°
2026-05-07 17:17 48.75099 15.42754 34007 ft 449 kts 301°
2026-05-07 17:17 48.78751 15.35059 33996 ft 450 kts 302°
2026-05-07 17:18 48.82403 15.27338 33991 ft 450 kts 302°
2026-05-07 17:18 48.86028 15.19655 33983 ft 451 kts 302°
2026-05-07 17:19 48.89680 15.11914 33989 ft 451 kts 302°
2026-05-07 17:19 48.93274 15.04106 34006 ft 450 kts 301°
2026-05-07 17:20 48.96788 14.96238 34008 ft 449 kts 300°
2026-05-07 17:20 49.00259 14.88436 34005 ft 448 kts 301°
2026-05-07 17:21 49.03773 14.80590 33994 ft 449 kts 301°
2026-05-07 17:21 49.07288 14.72726 33996 ft 449 kts 301°
2026-05-07 17:22 49.10807 14.64838 34020 ft 449 kts 301°
2026-05-07 17:22 49.14289 14.57013 34020 ft 448 kts 301°
2026-05-07 17:23 49.17778 14.49129 34018 ft 448 kts 301°
2026-05-07 17:23 49.21267 14.41240 34021 ft 447 kts 301°
2026-05-07 17:24 49.24743 14.33352 34027 ft 447 kts 301°
2026-05-07 17:24 49.28192 14.25508 34040 ft 447 kts 301°
2026-05-07 17:25 49.31651 14.17602 34036 ft 446 kts 301°
2026-05-07 17:25 49.35099 14.09683 34033 ft 447 kts 301°
2026-05-07 17:26 49.38559 14.01760 34034 ft 447 kts 301°
2026-05-07 17:26 49.41987 13.93873 34044 ft 447 kts 301°
2026-05-07 17:27 49.45424 13.85920 34045 ft 447 kts 301°
2026-05-07 17:27 49.48852 13.77952 34043 ft 446 kts 301°
2026-05-07 17:28 49.52273 13.69984 34042 ft 446 kts 301°
2026-05-07 17:28 49.55673 13.62062 34044 ft 446 kts 301°
2026-05-07 17:29 49.59089 13.54083 34056 ft 446 kts 301°
2026-05-07 17:29 49.62486 13.46107 34055 ft 445 kts 301°
2026-05-07 17:30 49.65881 13.38106 34054 ft 445 kts 301°
2026-05-07 17:30 49.69250 13.30158 34052 ft 445 kts 301°
2026-05-07 17:31 49.72635 13.22150 34051 ft 445 kts 301°
2026-05-07 17:31 49.76018 13.14119 34048 ft 446 kts 301°
2026-05-07 17:32 49.79392 13.06076 34041 ft 446 kts 301°
2026-05-07 17:32 49.82762 12.98028 34040 ft 445 kts 301°
2026-05-07 17:33 49.86110 12.90027 34040 ft 445 kts 301°
2026-05-07 17:33 49.89469 12.81954 34041 ft 445 kts 301°
2026-05-07 17:34 49.92822 12.73875 34057 ft 445 kts 301°
2026-05-07 17:34 49.96162 12.65785 34058 ft 445 kts 301°
2026-05-07 17:35 49.99477 12.57734 34054 ft 445 kts 301°
2026-05-07 17:35 50.02807 12.49612 34049 ft 446 kts 301°
2026-05-07 17:36 50.06073 12.41428 34046 ft 445 kts 295°
2026-05-07 17:36 50.08278 12.32473 34062 ft 443 kts 288°
2026-05-07 17:37 50.10246 12.23463 34061 ft 443 kts 288°
2026-05-07 17:37 50.12224 12.14388 34051 ft 442 kts 288°
2026-05-07 17:38 50.14191 12.05311 34045 ft 442 kts 288°
2026-05-07 17:38 50.16149 11.96231 34054 ft 442 kts 288°
2026-05-07 17:39 50.18078 11.87194 34050 ft 442 kts 288°
2026-05-07 17:39 50.20014 11.78082 34050 ft 442 kts 288°
2026-05-07 17:40 50.21943 11.68972 34051 ft 442 kts 288°
2026-05-07 17:40 50.23870 11.59873 34051 ft 442 kts 288°
2026-05-07 17:41 50.25779 11.50816 34045 ft 442 kts 288°
2026-05-07 17:41 50.27693 11.41685 34057 ft 442 kts 288°
2026-05-07 17:42 50.29597 11.32551 34059 ft 442 kts 288°
2026-05-07 17:42 50.31488 11.23419 34060 ft 441 kts 287°
2026-05-07 17:43 50.33363 11.14337 34060 ft 441 kts 287°
2026-05-07 17:43 50.35240 11.05191 34074 ft 442 kts 287°
2026-05-07 17:44 50.37117 10.96021 34061 ft 442 kts 287°
2026-05-07 17:44 50.38986 10.86840 34060 ft 443 kts 287°
2026-05-07 17:45 50.40871 10.77581 34062 ft 443 kts 287°
2026-05-07 17:45 50.42710 10.68496 34063 ft 443 kts 287°
2026-05-07 17:46 50.44557 10.59279 34075 ft 443 kts 287°
2026-05-07 17:46 50.46397 10.50068 34076 ft 442 kts 287°
2026-05-07 17:47 50.48235 10.40850 34078 ft 442 kts 287°
2026-05-07 17:47 50.50086 10.31646 34077 ft 442 kts 287°
2026-05-07 17:48 50.51932 10.22495 34086 ft 442 kts 287°
2026-05-07 17:48 50.53769 10.13276 34083 ft 442 kts 287°
2026-05-07 17:49 50.55586 10.04046 34090 ft 442 kts 287°
2026-05-07 17:49 50.57400 9.94801 34089 ft 442 kts 287°
2026-05-07 17:50 50.59207 9.85580 34086 ft 442 kts 287°
2026-05-07 17:50 50.61009 9.76396 34085 ft 442 kts 287°
2026-05-07 17:51 50.62813 9.67146 34087 ft 442 kts 287°
2026-05-07 17:51 50.64596 9.57892 34088 ft 442 kts 287°
2026-05-07 17:52 50.66376 9.48625 34090 ft 442 kts 287°
2026-05-07 17:52 50.68147 9.39347 34090 ft 442 kts 287°
2026-05-07 17:53 50.69898 9.30149 34087 ft 442 kts 287°
2026-05-07 17:53 50.71657 9.20874 34092 ft 441 kts 286°
2026-05-07 17:54 50.73226 9.11508 34094 ft 441 kts 284°
2026-05-07 17:54 50.74600 9.02074 34095 ft 441 kts 283°
2026-05-07 17:55 50.75974 8.92637 34095 ft 441 kts 283°
2026-05-07 17:55 50.77395 8.83209 34092 ft 441 kts 284°
2026-05-07 17:56 50.78805 8.73879 34096 ft 441 kts 283°
2026-05-07 17:56 50.80223 8.64426 34092 ft 441 kts 283°
2026-05-07 17:57 50.81387 8.56583 34089 ft 441 kts 283°
2026-05-07 17:57 50.83009 8.45544 34084 ft 441 kts 283°
2026-05-07 17:58 50.84399 8.36106 34084 ft 440 kts 283°
2026-05-07 17:58 50.85775 8.26733 34082 ft 440 kts 283°
2026-05-07 17:59 50.87133 8.17292 34084 ft 440 kts 283°
2026-05-07 17:59 50.88490 8.07857 34081 ft 439 kts 283°
2026-05-07 18:00 50.89839 7.98416 34077 ft 439 kts 283°
2026-05-07 18:00 50.91177 7.88981 34082 ft 439 kts 283°
2026-05-07 18:01 50.92499 7.79607 34085 ft 439 kts 282°
2026-05-07 18:01 50.93827 7.70166 34083 ft 439 kts 282°
2026-05-07 18:02 50.95812 7.56008 34083 ft 438 kts 282°
2026-05-07 18:03 50.97117 7.46558 34094 ft 438 kts 282°
2026-05-07 18:03 50.98395 7.37184 34097 ft 438 kts 282°
2026-05-07 18:04 50.99679 7.27725 34099 ft 438 kts 282°
2026-05-07 18:04 51.00964 7.18276 34100 ft 438 kts 282°
2026-05-07 18:05 51.02238 7.08823 34102 ft 438 kts 281°
2026-05-07 18:05 51.03494 6.99435 34099 ft 437 kts 281°
2026-05-07 18:06 51.04744 6.89997 34090 ft 436 kts 281°
2026-05-07 18:06 51.05987 6.80557 34090 ft 436 kts 281°
2026-05-07 18:07 51.07227 6.71119 34090 ft 436 kts 281°
2026-05-07 18:07 51.08465 6.61683 34093 ft 436 kts 281°
2026-05-07 18:08 51.09686 6.52251 34081 ft 435 kts 280°
2026-05-07 18:08 51.10880 6.42885 34079 ft 435 kts 280°
2026-05-07 18:09 51.12078 6.33469 34078 ft 434 kts 280°
2026-05-07 18:09 51.13269 6.24041 34077 ft 434 kts 280°
2026-05-07 18:10 51.14458 6.14617 34100 ft 434 kts 280°
2026-05-07 18:10 51.15631 6.05265 34099 ft 434 kts 280°
2026-05-07 18:11 51.16788 5.95904 34093 ft 433 kts 280°
2026-05-07 18:11 51.17994 5.86498 34087 ft 434 kts 284°
2026-05-07 18:12 51.20441 5.77725 34092 ft 436 kts 300°
2026-05-07 18:12 51.23603 5.69446 34084 ft 437 kts 299°
2026-05-07 18:13 51.26732 5.61117 34083 ft 437 kts 299°
2026-05-07 18:13 51.29850 5.52773 34102 ft 438 kts 299°
2026-05-07 18:14 51.32874 5.44680 34104 ft 438 kts 299°
2026-05-07 18:14 51.35983 5.36313 34105 ft 438 kts 299°
2026-05-07 18:15 51.39095 5.27937 34097 ft 438 kts 299°
2026-05-07 18:15 51.42197 5.19559 34102 ft 437 kts 298°
2026-05-07 18:16 51.45287 5.11161 34104 ft 437 kts 298°
2026-05-07 18:16 51.48376 5.02762 34109 ft 438 kts 298°
2026-05-07 18:17 51.51450 4.94403 34100 ft 438 kts 298°
2026-05-07 18:17 51.54531 4.85963 34099 ft 438 kts 298°
2026-05-07 18:18 51.57139 4.77158 34105 ft 435 kts 285°
2026-05-07 18:18 51.58302 4.67663 34099 ft 433 kts 278°
2026-05-07 18:19 51.59303 4.58110 34096 ft 433 kts 278°
2026-05-07 18:19 51.60309 4.48548 34096 ft 433 kts 278°
2026-05-07 18:20 51.61310 4.38990 34099 ft 433 kts 278°
2026-05-07 18:20 51.62301 4.29488 34099 ft 433 kts 278°
2026-05-07 18:21 51.63286 4.19920 34102 ft 434 kts 278°
2026-05-07 18:21 51.64250 4.10335 34103 ft 434 kts 278°
2026-05-07 18:22 51.65206 4.00739 34108 ft 434 kts 278°
2026-05-07 18:22 51.66153 3.91214 34108 ft 434 kts 278°
2026-05-07 18:23 51.67104 3.81613 34117 ft 434 kts 278°
2026-05-07 18:23 51.68054 3.72029 34119 ft 433 kts 277°
2026-05-07 18:24 51.68991 3.62445 34118 ft 433 kts 277°
2026-05-07 18:24 51.69908 3.52933 34120 ft 432 kts 277°
2026-05-07 18:25 51.70824 3.43363 34116 ft 432 kts 277°
2026-05-07 18:25 51.71724 3.33804 34120 ft 431 kts 277°
2026-05-07 18:26 51.72612 3.24247 34120 ft 430 kts 277°
2026-05-07 18:26 51.73028 3.14728 34115 ft 428 kts 264°
2026-05-07 18:27 51.72243 3.05238 34107 ft 427 kts 261°
2026-05-07 18:27 51.71419 2.95762 34105 ft 427 kts 261°
2026-05-07 18:28 51.70593 2.86287 34111 ft 427 kts 261°
2026-05-07 18:28 51.69764 2.76884 34108 ft 426 kts 261°
2026-05-07 18:29 51.68917 2.67426 34102 ft 426 kts 261°
2026-05-07 18:29 51.68077 2.57986 34098 ft 426 kts 261°
2026-05-07 18:30 51.67221 2.48552 34095 ft 425 kts 261°
2026-05-07 18:30 51.66354 2.39129 34102 ft 425 kts 261°
2026-05-07 18:31 51.65495 2.29776 34101 ft 425 kts 261°
2026-05-07 18:31 51.64625 2.20373 34098 ft 425 kts 261°
2026-05-07 18:32 51.63732 2.10972 34090 ft 425 kts 261°
2026-05-07 18:32 51.62857 2.01571 34092 ft 425 kts 261°
2026-05-07 18:33 51.61999 1.92244 34099 ft 425 kts 261°
2026-05-07 18:33 51.61124 1.82853 34100 ft 424 kts 261°
2026-05-07 18:34 51.60236 1.73476 34098 ft 424 kts 261°
2026-05-07 18:34 51.59344 1.64108 34097 ft 424 kts 262°
2026-05-07 18:35 51.59342 1.54653 34098 ft 424 kts 273°
2026-05-07 18:35 51.59764 1.45272 34093 ft 424 kts 273°
2026-05-07 18:36 51.60160 1.35812 34100 ft 424 kts 272°
2026-05-07 18:36 51.60544 1.26361 34092 ft 424 kts 272°
2026-05-07 18:37 51.60928 1.16908 34097 ft 424 kts 272°
2026-05-07 18:37 51.61310 1.07452 34099 ft 424 kts 272°
2026-05-07 18:38 51.61681 0.98053 34098 ft 424 kts 272°
2026-05-07 18:38 51.62043 0.88590 34109 ft 424 kts 272°
2026-05-07 18:39 51.62400 0.79131 34108 ft 423 kts 272°
2026-05-07 18:39 51.62740 0.69684 34106 ft 423 kts 272°
2026-05-07 18:40 51.63081 0.60241 34106 ft 423 kts 272°
2026-05-07 18:40 51.63418 0.50866 34097 ft 423 kts 272°
2026-05-07 18:41 51.63745 0.41420 34103 ft 422 kts 272°
2026-05-07 18:41 51.64052 0.31989 34091 ft 422 kts 272°
2026-05-07 18:42 51.64440 0.22563 34092 ft 423 kts 278°
2026-05-07 18:42 51.66365 0.13618 34091 ft 427 kts 298°
2026-05-07 18:43 51.70090 0.06201 34086 ft 432 kts 311°
2026-05-07 18:43 51.74307 -0.00727 34093 ft 433 kts 311°
2026-05-07 18:44 51.78513 -0.07698 34089 ft 433 kts 311°
2026-05-07 18:44 51.82719 -0.14672 34098 ft 434 kts 311°
2026-05-07 18:45 51.86905 -0.21602 34075 ft 434 kts 311°
2026-05-07 18:45 51.91126 -0.28599 34067 ft 434 kts 311°
2026-05-07 18:46 51.95334 -0.35618 34072 ft 434 kts 311°
2026-05-07 18:46 51.99534 -0.42649 34067 ft 434 kts 311°
2026-05-07 18:47 52.03710 -0.49653 34061 ft 434 kts 311°
2026-05-07 18:47 52.07900 -0.56701 34061 ft 435 kts 311°
2026-05-07 18:48 52.12109 -0.63801 33773 ft 436 kts 311°
2026-05-07 18:48 52.14210 -0.67354 33471 ft 436 kts 311°
2026-05-07 18:48 52.16322 -0.70937 32619 ft 440 kts 311°
2026-05-07 18:48 52.18443 -0.74542 31820 ft 442 kts 311°
2026-05-07 18:49 52.20580 -0.78177 31029 ft 445 kts 311°
2026-05-07 18:49 52.22728 -0.81831 30134 ft 449 kts 311°
2026-05-07 18:49 52.25016 -0.85228 29398 ft 450 kts 320°
2026-05-07 18:49 52.27597 -0.88054 28899 ft 446 kts 326°
2026-05-07 18:50 52.30234 -0.90664 28335 ft 441 kts 326°
2026-05-07 18:50 52.32843 -0.93267 27757 ft 437 kts 326°
2026-05-07 18:50 52.35420 -0.95850 27212 ft 432 kts 326°
2026-05-07 18:50 52.37971 -0.98407 26661 ft 428 kts 326°
2026-05-07 18:51 52.40498 -1.00940 26120 ft 424 kts 326°
2026-05-07 18:51 52.43011 -1.03455 25561 ft 421 kts 326°
2026-05-07 18:51 52.45465 -1.05913 25032 ft 418 kts 326°
2026-05-07 18:51 52.47931 -1.08384 24505 ft 414 kts 326°
2026-05-07 18:52 52.52874 -1.13350 23434 ft 408 kts 326°
2026-05-07 18:52 52.55285 -1.15777 22889 ft 404 kts 326°
2026-05-07 18:52 52.57636 -1.18146 22420 ft 400 kts 326°
2026-05-07 18:53 52.59995 -1.20519 21937 ft 396 kts 326°
2026-05-07 18:53 52.62335 -1.22882 21486 ft 393 kts 326°
2026-05-07 18:53 52.64651 -1.25233 21028 ft 389 kts 326°
2026-05-07 18:53 52.66943 -1.27567 20587 ft 386 kts 326°
2026-05-07 18:54 52.69217 -1.29879 20150 ft 383 kts 326°
2026-05-07 18:54 52.71478 -1.32171 19654 ft 382 kts 326°
2026-05-07 18:54 52.73762 -1.34488 19119 ft 387 kts 326°
2026-05-07 18:54 52.76054 -1.36821 18569 ft 387 kts 326°
2026-05-07 18:55 52.78317 -1.39131 17979 ft 387 kts 326°
2026-05-07 18:55 52.80601 -1.41466 17401 ft 385 kts 326°
2026-05-07 18:55 52.82870 -1.43793 16875 ft 383 kts 326°
2026-05-07 18:55 52.85125 -1.46105 16323 ft 380 kts 326°
2026-05-07 18:56 52.87367 -1.48404 15781 ft 378 kts 326°
2026-05-07 18:56 52.89598 -1.50692 15244 ft 376 kts 326°
2026-05-07 18:56 52.91815 -1.52967 14713 ft 374 kts 326°
2026-05-07 18:56 52.94020 -1.55235 14177 ft 373 kts 326°
2026-05-07 18:57 52.96220 -1.57498 13622 ft 372 kts 326°
2026-05-07 18:57 52.98408 -1.59756 13070 ft 368 kts 326°
2026-05-07 18:57 53.00574 -1.61994 12555 ft 365 kts 326°
2026-05-07 18:57 53.02714 -1.64209 12079 ft 360 kts 325°
2026-05-07 18:58 53.04742 -1.66390 11942 ft 344 kts 320°
2026-05-07 18:58 53.06454 -1.69018 11811 ft 327 kts 308°
2026-05-07 18:58 53.07903 -1.71835 11681 ft 314 kts 307°
2026-05-07 18:58 53.09297 -1.74547 11549 ft 303 kts 307°
2026-05-07 18:59 53.10651 -1.77171 11322 ft 296 kts 307°
2026-05-07 18:59 53.11982 -1.79751 11033 ft 292 kts 307°
2026-05-07 18:59 53.13303 -1.82315 10638 ft 292 kts 307°
2026-05-07 18:59 53.14752 -1.84700 10208 ft 296 kts 324°
2026-05-07 19:00 53.16654 -1.85921 10030 ft 294 kts 346°
2026-05-07 19:00 53.18686 -1.86413 9622 ft 295 kts 350°
2026-05-07 19:00 53.20736 -1.86815 9130 ft 298 kts 351°
2026-05-07 19:00 53.22802 -1.87223 8653 ft 300 kts 351°
2026-05-07 19:01 53.24849 -1.87638 8188 ft 299 kts 351°
2026-05-07 19:01 53.26866 -1.88050 7712 ft 285 kts 351°
2026-05-07 19:01 53.28795 -1.88450 7255 ft 274 kts 351°
2026-05-07 19:01 53.30630 -1.88839 7033 ft 260 kts 351°
2026-05-07 19:02 53.32393 -1.89219 7033 ft 253 kts 350°
2026-05-07 19:02 53.34130 -1.89593 7028 ft 252 kts 350°
2026-05-07 19:02 53.35868 -1.89961 7023 ft 252 kts 350°
2026-05-07 19:02 53.37611 -1.90337 6717 ft 252 kts 351°
2026-05-07 19:03 53.39340 -1.90718 6364 ft 250 kts 351°
2026-05-07 19:03 53.41039 -1.91099 5972 ft 250 kts 351°
2026-05-07 19:03 53.42760 -1.91491 5563 ft 249 kts 351°
2026-05-07 19:03 53.44468 -1.91886 5276 ft 248 kts 351°
2026-05-07 19:04 53.46175 -1.92291 5064 ft 247 kts 350°
2026-05-07 19:04 53.47879 -1.92696 4850 ft 247 kts 351°
2026-05-07 19:04 53.49538 -1.93359 4584 ft 244 kts 330°
2026-05-07 19:04 53.50773 -1.95188 4324 ft 235 kts 297°
2026-05-07 19:05 53.51102 -1.97766 4065 ft 225 kts 256°
2026-05-07 19:05 53.50364 -1.99948 3805 ft 216 kts 215°
2026-05-07 19:05 53.49015 -2.00966 3597 ft 211 kts 199°
2026-05-07 19:05 53.47791 -2.02144 3517 ft 195 kts 217°
2026-05-07 19:06 53.46877 -2.03683 3517 ft 185 kts 225°
2026-05-07 19:06 53.45268 -2.06926 3173 ft 176 kts 227°
2026-05-07 19:06 53.44520 -2.08482 2930 ft 168 kts 227°
2026-05-07 19:07 53.43803 -2.09977 2717 ft 161 kts 227°
2026-05-07 19:07 53.43113 -2.11413 2505 ft 156 kts 227°
2026-05-07 19:07 53.42435 -2.12825 2292 ft 154 kts 227°
2026-05-07 19:07 53.41765 -2.14221 2099 ft 154 kts 227°
2026-05-07 19:08 53.41079 -2.15645 1908 ft 167 kts 228°
2026-05-07 19:08 53.40603 -2.16636 1733 ft 161 kts 228°
2026-05-07 19:08 53.39941 -2.18018 1517 ft 146 kts 227°
2026-05-07 19:08 53.39315 -2.19319 1318 ft 141 kts 227°
2026-05-07 19:09 53.38500 -2.21010 1050 ft 141 kts 227°
2026-05-07 19:09 53.37884 -2.22288 866 ft 143 kts 228°
2026-05-07 19:09 53.37255 -2.23596 670 ft 144 kts 228°
2026-05-07 19:09 53.36631 -2.24891 449 ft 141 kts 230°
2026-05-07 19:10 53.36228 -2.25733 332 ft 139 kts 229°
2026-05-07 19:10 53.35654 -2.26907 262 ft 111 kts 231°
2026-05-07 19:10 53.35280 -2.27690 239 ft 61 kts 231°
2026-05-07 19:10 53.35082 -2.28100 233 ft 40 kts 231°
2026-05-07 19:11 53.34947 -2.28568 232 ft 20 kts 259°
2026-05-07 19:11 53.34941 -2.28679 228 ft 11 kts 278°
2026-05-07 19:11 53.35000 -2.28745 227 ft 12 kts 15°
2026-05-07 19:11 53.35060 -2.28656 229 ft 11 kts 49°
2026-05-07 19:12 53.35108 -2.28557 228 ft 8 kts 51°
2026-05-07 19:12 53.35150 -2.28470 228 ft 9 kts 51°
2026-05-07 19:12 53.35174 -2.28420 228 ft 4 kts 51°
2026-05-07 19:12 53.35185 -2.28396 229 ft 1 kts 51°
2026-05-07 19:13 53.35189 -2.28388 229 ft 2 kts 51°
2026-05-07 19:13 53.35201 -2.28362 231 ft 3 kts 52°
2026-05-07 19:13 53.35216 -2.28330 232 ft 4 kts 52°
2026-05-07 19:13 53.35252 -2.28259 233 ft 11 kts 49°
2026-05-07 19:14 53.35298 -2.28180 233 ft 6 kts 33°
2026-05-07 19:14 53.35327 -2.28170 234 ft 3 kts
2026-05-07 19:14 53.35359 -2.28167 235 ft 7 kts
2026-05-07 19:14 53.35415 -2.28159 236 ft 10 kts
2026-05-07 19:15 53.35497 -2.28121 235 ft 14 kts 27°
2026-05-07 19:15 53.35570 -2.28011 237 ft 13 kts 53°
2026-05-07 19:15 53.35626 -2.27913 241 ft 11 kts 35°
2026-05-07 19:15 53.35686 -2.27884 244 ft 8 kts
2026-05-07 19:16 53.35729 -2.27877 246 ft 5 kts
2026-05-07 19:16 53.35755 -2.27873 248 ft 4 kts
2026-05-07 19:16 53.35799 -2.27866 250 ft 8 kts
2026-05-07 19:16 53.35867 -2.27854 254 ft 11 kts
2026-05-07 19:17 53.35941 -2.27852 255 ft 11 kts 347°
2026-05-07 19:17 53.36008 -2.27925 255 ft 12 kts 319°
2026-05-07 19:17 53.36073 -2.28022 255 ft 13 kts 318°
2026-05-07 19:17 53.36146 -2.28128 255 ft 14 kts 319°
2026-05-07 19:18 53.36216 -2.28253 255 ft 15 kts 313°
2026-05-07 19:18 53.36294 -2.28384 255 ft 16 kts 315°
2026-05-07 19:18 53.36388 -2.28481 255 ft 17 kts 345°
2026-05-07 19:18 53.36481 -2.28592 255 ft 17 kts 314°
2026-05-07 19:19 53.36562 -2.28730 255 ft 15 kts 314°
2026-05-07 19:19 53.36637 -2.28767 255 ft 12 kts 39°
2026-05-07 19:19 53.36649 -2.28748 255 ft 5 kts 43°
2026-05-07 19:19 53.36686 -2.28690 255 ft 8 kts 43°
2026-05-07 19:20 53.36700 -2.28634 255 ft 4 kts 118°
2026-05-07 19:20 53.36685 -2.28580 255 ft 5 kts 127°
2026-05-07 19:20 53.36668 -2.28549 255 ft 0 kts 134°